TimeEST,TemperatureF,Dew PointF,Humidity,Sea Level PressureIn,VisibilityMPH,Wind Direction,Wind SpeedMPH,Gust SpeedMPH,PrecipitationIn,Events,Conditions,WindDirDegrees,DateUTC
12:54 AM,37.9,28.0,68,30.15,10.0,Calm,Calm,-,N/A,,Overcast,0,2012-11-05 05:54:00
1:54 AM,35.1,26.1,70,30.15,10.0,North,3.5,-,N/A,,Mostly Cloudy,10,2012-11-05 06:54:00
2:54 AM,35.1,28.0,76,30.16,10.0,Calm,Calm,-,N/A,,Overcast,0,2012-11-05 07:54:00
3:54 AM,33.1,26.1,75,30.16,10.0,Calm,Calm,-,N/A,,Partly Cloudy,0,2012-11-05 08:54:00
4:54 AM,28.9,25.0,85,30.17,9.0,Calm,Calm,-,N/A,,Clear,0,2012-11-05 09:54:00
5:54 AM,28.0,25.0,88,30.18,7.0,Calm,Calm,-,N/A,,Clear,0,2012-11-05 10:54:00
6:54 AM,28.0,24.1,85,30.19,7.0,Calm,Calm,-,N/A,,Mostly Cloudy,0,2012-11-05 11:54:00
7:54 AM,28.9,26.1,89,30.20,5.0,Calm,Calm,-,N/A,,Clear,0,2012-11-05 12:54:00
8:54 AM,35.1,28.0,76,30.19,9.0,Calm,Calm,-,N/A,,Clear,0,2012-11-05 13:54:00
9:54 AM,41.0,28.9,62,30.19,10.0,Calm,Calm,-,N/A,,Clear,0,2012-11-05 14:54:00
10:54 AM,45.0,28.0,52,30.19,10.0,Variable,6.9,-,N/A,,Partly Cloudy,0,2012-11-05 15:54:00
11:54 AM,43.0,28.0,56,30.18,10.0,Calm,Calm,-,N/A,,Scattered Clouds,0,2012-11-05 16:54:00
12:54 PM,46.0,26.1,46,30.16,10.0,Calm,Calm,-,N/A,,Partly Cloudy,0,2012-11-05 17:54:00
1:54 PM,46.9,27.0,46,30.14,10.0,Calm,Calm,-,N/A,,Clear,0,2012-11-05 18:54:00
2:54 PM,46.9,27.0,46,30.13,10.0,North,5.8,-,N/A,,Clear,10,2012-11-05 19:54:00
3:54 PM,46.0,28.0,50,30.13,10.0,NE,6.9,-,N/A,,Partly Cloudy,50,2012-11-05 20:54:00
4:54 PM,44.1,27.0,51,30.13,10.0,NNE,4.6,-,N/A,,Clear,30,2012-11-05 21:54:00
5:54 PM,39.9,27.0,60,30.15,10.0,NNE,3.5,-,N/A,,Clear,30,2012-11-05 22:54:00
6:54 PM,37.9,27.0,65,30.17,10.0,Calm,Calm,-,N/A,,Clear,0,2012-11-05 23:54:00
7:54 PM,36.0,26.1,67,30.17,10.0,Calm,Calm,-,N/A,,Clear,0,2012-11-06 00:54:00
8:54 PM,34.0,26.1,73,30.17,10.0,Calm,Calm,-,N/A,,Clear,0,2012-11-06 01:54:00
9:54 PM,33.1,26.1,75,30.18,10.0,Calm,Calm,-,N/A,,Clear,0,2012-11-06 02:54:00
10:54 PM,30.9,26.1,82,30.17,10.0,NNE,3.5,-,N/A,,Clear,30,2012-11-06 03:54:00
11:54 PM,32.0,25.0,75,30.16,10.0,NNE,3.5,-,N/A,,Clear,30,2012-11-06 04:54:00